This demonstration page uses our WeatherBlox Daily Observations layout. Learn more.

Hourly Observations for October 5, 2017

Temp ( °F °C ) Dew Point ( °F °C ) Humidity (%) Winds ( mph kmh ) Pressure ( in mb ) Visibility ( mi km ) Precip ( " mm )
12:54 am 00:54 Cloudy 62 16.7 51 10.6 67 67 SSE 7 11 30.18 1022 10 16.09344 0 0
1:25 am 01:25 Cloudy 61 16.1 52 11.1 72 72 S 7 11 30.21 1023 10 16.09344 0 0
1:54 am 01:54 Cloudy 61 16.1 53 11.7 75 75 S 8 13 30.18 1022 10 16.09344 0 0
2:54 am 02:54 Cloudy 59 15 56 13.3 90 90 SSE 8 13 30.15 1021 10 16.09344 0 0
3:17 am 03:17 Cloudy 59 15 56 13.3 90 90 SE 6 9 30.18 1022 10 16.09344 0 0
3:54 am 03:54 Cloudy 59 15 56 13.3 90 90 S 5 7 30.15 1021 10 16.09344 0 0
4:54 am 04:54 Cloudy with Mist and Fog 58 14.4 57 13.9 97 97 S 3 6 30.15 1021 2 3.218688 0 0
5:08 am 05:08 Cloudy with Mist and Fog 58 14.4 57 13.9 97 97 S 5 7 30.18 1022 2 3.218688 0 0
5:26 am 05:26 Cloudy with Mist and Fog 58 14.4 57 13.9 97 97 SSE 5 7 30.15 1021 4 6.437376 0 0
5:54 am 05:54 Cloudy with Mist and Fog 58 14.4 57 13.9 97 97 S 5 7 30.12 1020 4 6.437376 0 0
6:54 am 06:54 Cloudy with Mist and Fog 59 15 58 14.4 96 96 S 3 6 30.12 1020 6 9.656064 0.01 0.254
7:06 am 07:06 Cloudy with Thunderstorms 59 15 58 14.4 96 96 S 3 6 30.15 1021 6 9.656064 0 0
7:17 am 07:17 Cloudy with Heavy Thunderstorms 59 15 58 14.4 96 96 S 5 7 30.15 1021 1.75 2.816352 0.08 2.032
7:25 am 07:25 Cloudy with Thunderstorms 59 15 58 14.4 96 96 Calm 30.15 1021 3 4.828032 0.11 2.794
7:42 am 07:42 Cloudy with Nearby Thunderstorms 59 15 58 14.4 96 96 S 3 6 30.15 1021 4 6.437376 0.13 3.302
7:47 am 07:47 Cloudy with Nearby Thunderstorms 59 15 58 14.4 96 96 SE 5 7 30.15 1021 2 3.218688 0.14 3.556
7:51 am 07:51 Cloudy with Nearby Thunderstorms 59 15 57 14 94 94 E 3 6 30.12 1020 1.75 2.816352 0.17 4.318
7:54 am 07:54 Cloudy with Nearby Thunderstorms 59 15 58 14.4 96 96 E 3 6 30.09 1019 1.75 2.816352 0.19 4.826
8:07 am 08:07 Cloudy with Light Thunderstorms 59 15 58 14.4 96 96 Calm 30.12 1020 3 4.828032 0.01 0.254
8:35 am 08:35 Cloudy with Heavy Thunderstorms 59 15 58 14.4 96 96 SE 7 11 30.12 1020 3 4.828032 0.36 9.144
8:44 am 08:44 Cloudy with Heavy Thunderstorms 59 15 59 15 100 100 Calm 30.12 1020 3 4.828032 0.56 14.224
8:48 am 08:48 Cloudy with Nearby Thunderstorms 59 15 59 15 100 100 ESE 5 7 30.12 1020 3 4.828032 0.58 14.732
8:54 am 08:54 Cloudy with Nearby Thunderstorms 59 15 58 14.4 96 96 ESE 6 9 30.09 1019 3 4.828032 0.62 15.748
8:58 am 08:58 Cloudy with Nearby Thunderstorms 59 15 58 14.4 96 96 ESE 5 7 30.12 1020 2 3.218688 0.03 0.762
9:03 am 09:03 Cloudy with Heavy Rain 59 15 59 15 100 100 E 3 6 30.12 1020 2 3.218688 0.07 1.778
9:52 am 09:52 Cloudy with Light Rain 61 16 59 15 94 94 SE 7 11 30.09 1019 2 3.218688 0.22 5.588
9:54 am 09:54 Cloudy with Light Rain 61 16.1 59 15 93 93 SE 7 11 30.09 1019 2 3.218688 0.22 5.588
9:57 am 09:57 Cloudy with Light Rain 61 16.1 59 15 93 93 SE 8 13 30.09 1019 8 12.874752 0.001 0.001
10:04 am 10:04 Cloudy 61 16.1 60 15.6 97 97 SSE 9 15 30.09 1019 9 14.484096 0.001 0.001
10:45 am 10:45 Cloudy with Light Rain 62 16.7 60 15.6 93 93 SSE 6 9 30.09 1019 3 4.828032 0.001 0.001
10:52 am 10:52 Cloudy with Light Rain 63 17 61 16 94 94 SSE 5 7 30.09 1019 2.5 4.02336 0.001 0.001
10:54 am 10:54 Cloudy with Light Rain 62 16.7 60 15.6 93 93 SSE 5 7 30.06 1018 2 3.218688 0.01 0.254
11:01 am 11:01 Cloudy with Rain 62 16.7 60 15.6 93 93 S 5 7 30.09 1019 1 1.609344 0.02 0.508
11:20 am 11:20 Cloudy with Light Rain 62 16.7 61 16.1 96 96 SSE 6 9 30.09 1019 2 3.218688 0.06 1.524
11:39 am 11:39 Cloudy with Mist and Fog 63 17.2 61 16.1 93 93 SSE 6 9 30.09 1019 6 9.656064 0.08 2.032
11:54 am 11:54 Cloudy with Light Rain 63 17.2 61 16.1 93 93 ESE 8 13 30.06 1018 6 9.656064 0.09 2.286
12:22 pm 12:22 Cloudy with Light Rain 63 17.2 61 16.1 93 93 SE 8 13 30.09 1019 2 3.218688 0.01 0.254
12:54 pm 12:54 Cloudy with Nearby Thunderstorms 64 17.8 62 16.7 93 93 E 6 9 30.03 1017 8 12.874752 0.01 0.254
1:37 pm 13:37 Cloudy with Light Rain 64 17.8 62 16.7 93 93 E 5 7 30.03 1017 8 12.874752 0.001 0.001
1:54 pm 13:54 Cloudy 64 17.8 62 16.7 93 93 E 7 11 30 1016 8 12.874752 0.001 0.001
2:15 pm 14:15 Cloudy with Rain 64 17.8 62 16.7 93 93 E 5 7 30 1016 2 3.218688 0.02 0.508
2:22 pm 14:22 Cloudy with Rain 64 17.8 63 17.2 96 96 E 5 7 30 1016 1.25 2.01168 0.05 1.27
2:30 pm 14:30 Cloudy with Nearby Thunderstorms 64 17.8 63 17.2 96 96 E 5 7 30 1016 1.75 2.816352 0.08 2.032
2:39 pm 14:39 Cloudy with Nearby Thunderstorms 64 17.8 63 17.2 96 96 E 5 7 30 1016 2 3.218688 0.09 2.286
2:47 pm 14:47 Cloudy with Heavy Thunderstorms 64 17.8 62 16.7 93 93 E 3 6 30 1016 1.75 2.816352 0.11 2.794
2:52 pm 14:52 Cloudy with Thunderstorms 64 18 63 17 94 94 E 3 6 30 1016 2 3.218688 0.14 3.556
2:54 pm 14:54 Cloudy with Thunderstorms 64 17.8 62 16.7 93 93 E 5 7 30 1016 2 3.218688 0.14 3.556
2:59 pm 14:59 Cloudy with Nearby Thunderstorms 64 17.8 63 17.2 96 96 ESE 5 7 30 1016 3 4.828032 0.01 0.254
3:09 pm 15:09 Cloudy with Rain 64 17.8 63 17.2 96 96 E 5 7 30 1016 3 4.828032 0.03 0.762
3:17 pm 15:17 Cloudy with Light Rain 64 17.8 63 17.2 96 96 E 6 9 30 1016 4 6.437376 0.04 1.016
3:29 pm 15:29 Cloudy with Light Rain 65 18.3 63 17.2 93 93 E 6 9 30 1016 6 9.656064 0.04 1.016
3:43 pm 15:43 Cloudy with Light Rain 65 18.3 63 17.2 93 93 E 5 7 30 1016 10 16.09344 0.05 1.27
3:54 pm 15:54 Cloudy 66 18.9 63 17.2 90 90 E 5 7 29.97 1015 10 16.09344 0.05 1.27
4:24 pm 16:24 Cloudy 66 18.9 64 17.8 93 93 E 5 7 29.97 1015 10 16.09344 0.001 0.001
4:54 pm 16:54 Cloudy 66 18.9 63 17.2 90 90 NE 7 11 29.97 1015 8 12.874752 0.001 0.001
5:51 pm 17:51 Cloudy with Mist and Fog 66 19 64 18 94 94 NNE 6 9 29.97 1015 4 6.437376 0 0
5:54 pm 17:54 Cloudy with Mist and Fog 66 18.9 64 17.8 93 93 N 5 7 29.97 1015 4 6.437376 0 0
6:04 pm 18:04 Cloudy 66 18.9 64 17.8 93 93 N 6 9 29.97 1015 9 14.484096 0 0
6:54 pm 18:54 Cloudy 66 18.9 64 17.8 93 93 NNE 6 9 29.97 1015 10 16.09344 0 0
7:45 pm 19:45 Cloudy 65 18.3 64 17.8 97 97 NNE 7 11 29.94 1014 9 14.484096 0 0
7:54 pm 19:54 Cloudy with Mist and Fog 65 18.3 64 17.8 97 97 N 6 9 29.97 1015 4 6.437376 0 0
8:28 pm 20:28 Cloudy 65 18.3 63 17.2 93 93 N 6 9 29.97 1015 10 16.09344 0 0
8:54 pm 20:54 Cloudy 65 18.3 63 17.2 93 93 NNW 7 11 29.97 1015 10 16.09344 0 0
9:54 pm 21:54 Cloudy 64 17.8 63 17.2 96 96 N 8 13 29.97 1015 10 16.09344 0 0
10:54 pm 22:54 Cloudy 64 17.8 63 17.2 96 96 NNW 5 7 29.97 1015 7 11.265408 0 0
11:54 pm 23:54 Cloudy with Mist and Fog 64 17.8 63 17.2 96 96 N 6 9 29.97 1015 4 6.437376 0 0

Powered by AerisWeather